Chicago Executive, IL

10:19 AM CST on December 13, 2019 (GMT -0600)
Chicago Executive

Weather History for KPWK - November, 2019

Change the Weather History Date:

Sunday, November 17, 2019

  Actual Average Record
Temperature  
Mean Temperature 34 °F 39 °F  
Max Temperature 41 °F 47 °F 72 °F (2016)
Min Temperature 26 °F 32 °F 11 °F (2014)
Degree Days  
Heating Degree Days 32 26  
Month to date heating degree days 553 374  
Since 1 July heating degree days 979 895  
Cooling Degree Days 0 0  
Month to date cooling degree days 0 0  
Year to date cooling degree days 996 789  
Moisture  
Dew Point 29 °F    
Average Humidity 77    
Maximum Humidity 89    
Minimum Humidity 62    
Precipitation  
Precipitation 0.06 in 0.10 in 0.83 in (2013)
Month to date precipitation 0.15 1.75  
Year to date precipitation 42.03 30.38  
Sea Level Pressure  
Sea Level Pressure 29.99 in    
Wind  
Wind Speed 5 mph ()    
Max Wind Speed 12 mph    
Max Gust Speed 15 mph    
Visibility 7.6 miles    
Events Rain    
T = Trace of Precipitation, MM = Missing Value Source: Averaged Metar Reports

Daily Weather History Graph

Daily Weather History Graph

Search for Another Location

Airport or City:

Astronomy

Nov. 17, 2019 Rise Set
Actual Time 6:43 AM CST 4:28 PM CST
Civil Twilight 6:13 AM CST 4:58 PM CST
Nautical Twilight 5:39 AM CST 5:32 PM CST
Astronomical Twilight 5:06 AM CST 6:05 PM CST
Moon 9:03 PM CST (11/17) 11:30 AM CST (11/17)
Length of Visible Light 10h 45m
Length of Day
9h 44m
Waning Gibbous, 73% of the Moon is Illuminated
Nov 17
Waning Gibbous
Nov 19
Last Quarter
Nov 26
New
Dec 4
First Quarter
Dec 11
Full

Hourly Weather History & Observations

Time (CST) Temp. Windchill Dew Point Humidity Pressure Visibility Wind Dir Wind Speed Gust Speed Precip Events Conditions
12:52 AM 32.0 °F 24.2 °F 25.0 °F 75% 30.22 in 10.0 mi SSE 9.2 mph - N/A   Clear
1:52 AM 30.0 °F 25.2 °F 23.0 °F 75% 30.21 in 10.0 mi SE 4.6 mph - N/A   Clear
2:52 AM 28.9 °F - 23.0 °F 78% 30.19 in 10.0 mi Calm Calm - N/A   Clear
3:52 AM 28.9 °F 25.2 °F 23.0 °F 78% 30.16 in 10.0 mi ESE 3.5 mph - N/A   Clear
4:52 AM 28.0 °F 24.2 °F 23.0 °F 81% 30.15 in 10.0 mi SE 3.5 mph - N/A   Clear
5:52 AM 27.0 °F 23.0 °F 21.9 °F 81% 30.14 in 10.0 mi SE 3.5 mph - N/A   Clear
6:52 AM 27.0 °F 23.0 °F 21.9 °F 81% 30.12 in 10.0 mi SE 3.5 mph - N/A   Clear
7:52 AM 30.0 °F 25.2 °F 25.0 °F 82% 30.09 in 10.0 mi SE 4.6 mph - N/A   Clear
8:52 AM 33.1 °F 26.9 °F 27.0 °F 78% 30.07 in 10.0 mi South 6.9 mph - N/A   Clear
9:52 AM 35.1 °F 29.3 °F 27.0 °F 72% 30.06 in 10.0 mi South 6.9 mph - N/A   Scattered Clouds
10:52 AM 36.0 °F 31.1 °F 28.0 °F 73% 30.03 in 9.0 mi SSE 5.8 mph - N/A   Mostly Cloudy
11:52 AM 37.9 °F 32.7 °F 28.9 °F 70% 30.00 in 9.0 mi SSE 6.9 mph - N/A   Overcast
12:52 PM 39.9 °F 34.5 °F 28.9 °F 65% 29.96 in 9.0 mi South 8.1 mph - N/A   Overcast
1:52 PM 41.0 °F 35.8 °F 28.9 °F 62% 29.93 in 8.0 mi South 8.1 mph - N/A   Overcast
2:52 PM 41.0 °F 36.4 °F 30.0 °F 65% 29.92 in 8.0 mi SSE 6.9 mph - N/A   Overcast
3:52 PM 41.0 °F 36.4 °F 30.0 °F 65% 29.91 in 9.0 mi SSE 6.9 mph - N/A   Overcast
4:52 PM 39.9 °F 35.8 °F 30.0 °F 68% 29.89 in 10.0 mi SE 5.8 mph - N/A   Overcast
5:52 PM 41.0 °F 38.0 °F 30.0 °F 65% 29.90 in 9.0 mi South 4.6 mph - N/A   Overcast
6:52 PM 39.0 °F 34.0 °F 30.9 °F 73% 29.91 in 7.0 mi South 6.9 mph - 0.00 in Rain Light Rain
7:52 PM 37.9 °F 33.5 °F 33.1 °F 83% 29.90 in 5.0 mi SSW 5.8 mph - 0.02 in Rain Light Rain
8:52 PM 37.9 °F 35.5 °F 34.0 °F 86% 29.88 in 4.0 mi SSW 3.5 mph - 0.02 in Rain Light Rain
9:15 PM 37.9 °F 34.4 °F 34.0 °F 86% 29.86 in 4.0 mi SSW 4.6 mph - 0.01 in Rain Light Rain
9:35 PM 37.9 °F 35.5 °F 34.0 °F 86% 29.86 in 3.0 mi South 3.5 mph - 0.01 in   Overcast
9:52 PM 37.9 °F 35.5 °F 35.1 °F 89% 29.87 in 3.0 mi South 3.5 mph - 0.01 in   Overcast
10:05 PM 37.9 °F 35.5 °F 34.0 °F 86% 29.85 in 3.0 mi SSW 3.5 mph - 0.00 in Rain Light Rain
10:52 PM 37.9 °F 35.5 °F 35.1 °F 89% 29.85 in 3.0 mi South 3.5 mph - 0.01 in   Overcast
11:52 PM 37.9 °F 35.5 °F 35.1 °F 89% 29.84 in 3.0 mi South 3.5 mph - N/A   Overcast